Hourly Data Report for December 18, 2021

TORONTO CITY
ONTARIO
Current Station Operator: ECCC - MSC

43°40'00.000" N
79°24'00.000" W
112.50 m
6158355
71508
XTO

Download Data

Hourly Data (December 2021)
Hourly Data Report for December 18, 2021
TIME
LST
Temp Definition
°C
Dew Point Definition
°C
Rel Hum Definition
%
Precip. Amount Definition
mm

Wind Dir Definition
10's deg

Wind Spd Definition
km/h
Visibility Definition
km
Stn Press Definition
kPa
Hmdx Definition


Wind Chill Definition


Weather Definition


00:00 1.0 -4.9 64 0.0       101.01     LegendNANA
01:00 1.1 -4.5 66 0.0       101.02     LegendNANA
02:00 1.2 -4.3 67 0.0       101.04     LegendNANA
03:00 1.1 -4.5 66 0.0       100.94     LegendNANA
04:00 0.7 -3.4 74 0.0       100.86     LegendNANA
05:00 0.5 -4.1 71 0.0       100.83     LegendNANA
06:00 0.1 -2.2 84 0.0       100.73     LegendNANA
07:00 0.4 -1.8 85 0.0       100.68     LegendNANA
08:00 0.9 -2.3 80 0.0       100.57     LegendNANA
09:00 1.0 -1.3 85 0.3       100.50     LegendNANA
10:00 0.1 -0.9 93 1.1       100.44     LegendNANA
11:00 0.0 -0.9 94 1.7       100.28     LegendNANA
12:00 -0.3 -1.5 92 1.2       100.13     LegendNANA
13:00 -0.6 -2.0 90 0.8       99.98     LegendNANA
14:00 -0.7 -2.3 89 0.8       99.90     LegendNANA
15:00 -1.0 -2.5 89 0.8       99.85     LegendNANA
16:00 -1.5 -2.8 91 0.9       99.90     LegendNANA
17:00 -1.8 -3.4 89 0.6       99.89     LegendNANA
18:00 -1.9 -3.9 86 0.0       99.95     LegendNANA
19:00 -2.2 -5.1 80 0.0       100.06     LegendNANA
20:00 -2.3 -5.4 80 0.0       100.14     LegendNANA
21:00 -2.5 -5.8 78 0.0       100.19     LegendNANA
22:00 -2.3 -5.3 80 0.0       100.28     LegendNANA
23:00 -2.5 -5.5 79 0.0       100.35     LegendNANA

Notes on Data Quality.

Legend

  • E = Estimated
  • M = Missing
  • NA = Not Available*
  • [empty] = Indicates an unobserved value
Date modified: